| time (UTC) | temp F | wind direction | speed MPH | gust MPH | rain 1hr in | rain 24hr in | rain mn in | humidity % | barometer mb |
| 20260510230017 | 57 | 0.0 | 0.0 | 0.00 | 0.00 | 0.00 | 93 | 1012.2 | |
| 20260510225017 | 57 | 0.0 | 0.0 | 0.00 | 0.00 | 0.00 | 93 | 1012.1 | |
| 20260510224017 | 57 | 0.0 | 0.0 | 0.00 | 0.00 | 0.00 | 93 | 1012.1 | |
| 20260510223038 | 57 | 0.0 | 0.0 | 0.00 | 0.00 | 0.00 | 93 | 1012.0 | |
| 20260510222017 | 57 | 0.0 | 0.0 | 0.00 | 0.00 | 0.00 | 93 | 1011.9 | |
| 20260510221017 | 57 | 0.0 | 0.0 | 0.00 | 0.00 | 0.00 | 93 | 1011.8 | |
| 20260510220017 | 57 | 0.0 | 0.0 | 0.00 | 0.00 | 0.00 | 92 | 1011.6 | |
| 20260510215038 | 57 | 0.0 | 0.0 | 0.00 | 0.00 | 0.00 | 92 | 1011.6 | |
| 20260510214017 | 58 | 0.0 | 0.0 | 0.00 | 0.00 | 0.00 | 92 | 1011.5 | |
| 20260510213017 | 58 | 0.0 | 1.0 | 0.00 | 0.00 | 0.00 | 91 | 1011.6 | |
| 20260510212017 | 59 | 0.0 | 4.0 | 0.00 | 0.00 | 0.00 | 91 | 1011.6 | |
| 20260510211017 | 60 | 248 | 1.0 | 4.0 | 0.00 | 0.00 | 0.00 | 89 | 1011.7 |
| 20260510210017 | 63 | 225 | 1.0 | 5.0 | 0.00 | 0.00 | 0.00 | 84 | 1011.5 |
| 20260510205017 | 66 | 0.0 | 3.0 | 0.00 | 0.00 | 0.00 | 73 | 1011.2 | |
| 20260510204018 | 67 | 225 | 1.0 | 5.0 | 0.00 | 0.00 | 0.00 | 69 | 1011.1 |
| 20260510203018 | 69 | 248 | 2.0 | 7.0 | 0.00 | 0.00 | 0.00 | 67 | 1010.9 |
| 20260510202037 | 68 | 225 | 1.0 | 4.0 | 0.00 | 0.00 | 0.00 | 68 | 1010.9 |
| 20260510201017 | 68 | 248 | 2.0 | 5.0 | 0.00 | 0.00 | 0.00 | 68 | 1011.0 |
| 20260510200017 | 67 | 0.0 | 4.0 | 0.00 | 0.00 | 0.00 | 70 | 1011.1 | |
| 20260510195018 | 67 | 248 | 1.0 | 5.0 | 0.00 | 0.00 | 0.00 | 72 | 1011.3 |
| 20260510194017 | 66 | 225 | 1.0 | 4.0 | 0.00 | 0.00 | 0.00 | 73 | 1011.3 |
| 20260510193017 | 65 | 248 | 1.0 | 3.0 | 0.00 | 0.00 | 0.00 | 74 | 1011.4 |
| 20260510192017 | 65 | 248 | 2.0 | 4.0 | 0.00 | 0.00 | 0.00 | 73 | 1011.5 |
| 20260510191038 | 66 | 270 | 2.0 | 6.0 | 0.00 | 0.00 | 0.00 | 72 | 1011.5 |
| 20260510190017 | 67 | 225 | 1.0 | 4.0 | 0.00 | 0.00 | 0.00 | 71 | 1011.6 |
| 20260510185017 | 67 | 0.0 | 2.0 | 0.00 | 0.00 | 0.00 | 71 | 1011.7 | |
| 20260510184017 | 68 | 248 | 2.0 | 5.0 | 0.00 | 0.00 | 0.00 | 69 | 1011.6 |
| 20260510183017 | 68 | 248 | 1.0 | 5.0 | 0.00 | 0.00 | 0.00 | 70 | 1011.7 |
| 20260510182017 | 65 | 0.0 | 1.0 | 0.00 | 0.00 | 0.00 | 73 | 1011.6 | |
| 20260510181017 | 65 | 248 | 1.0 | 3.0 | 0.00 | 0.00 | 0.00 | 70 | 1011.5 |
| 20260510180038 | 66 | 248 | 2.0 | 7.0 | 0.00 | 0.00 | 0.00 | 71 | 1011.5 |
| 20260510175017 | 67 | 248 | 1.0 | 4.0 | 0.00 | 0.00 | 0.00 | 70 | 1011.6 |
| 20260510174037 | 67 | 135 | 2.0 | 8.0 | 0.00 | 0.00 | 0.00 | 70 | 1011.7 |
| 20260510173018 | 66 | 248 | 2.0 | 6.0 | 0.00 | 0.00 | 0.00 | 71 | 1011.8 |
| 20260510172057 | 66 | 248 | 1.0 | 3.0 | 0.00 | 0.00 | 0.00 | 72 | 1011.9 |
| 20260510171017 | 64 | 248 | 3.0 | 6.0 | 0.00 | 0.00 | 0.00 | 73 | 1011.9 |
| 20260510170017 | 65 | 270 | 2.0 | 6.0 | 0.00 | 0.00 | 0.00 | 76 | 1012.1 |
| 20260510165017 | 64 | 248 | 2.0 | 4.0 | 0.00 | 0.00 | 0.00 | 77 | 1012.1 |
| 20260510164017 | 63 | 248 | 1.0 | 6.0 | 0.00 | 0.00 | 0.00 | 79 | 1012.2 |
| 20260510163017 | 62 | 68 | 1.0 | 6.0 | 0.00 | 0.00 | 0.00 | 79 | 1012.3 |
| 20260510162017 | 62 | 113 | 1.0 | 6.0 | 0.00 | 0.00 | 0.00 | 83 | 1012.3 |
| 20260510161037 | 61 | 248 | 1.0 | 5.0 | 0.00 | 0.00 | 0.00 | 84 | 1012.3 |
| 20260510160017 | 60 | 248 | 2.0 | 5.0 | 0.00 | 0.00 | 0.00 | 85 | 1012.4 |
| 20260510155017 | 60 | 270 | 1.0 | 3.0 | 0.00 | 0.00 | 0.00 | 87 | 1012.6 |
| 20260510154022 | 58 | 248 | 1.0 | 5.0 | 0.00 | 0.00 | 0.00 | 88 | 1012.5 |
| 20260510153017 | 58 | 203 | 1.0 | 3.0 | 0.00 | 0.00 | 0.00 | 89 | 1012.6 |
| 20260510152038 | 57 | 248 | 1.0 | 4.0 | 0.00 | 0.00 | 0.00 | 89 | 1012.6 |
| 20260510151017 | 57 | 113 | 1.0 | 4.0 | 0.00 | 0.00 | 0.00 | 90 | 1012.4 |
| 20260510150017 | 56 | 203 | 1.0 | 5.0 | 0.00 | 0.00 | 0.00 | 92 | 1012.3 |
| 20260510145017 | 56 | 248 | 1.0 | 3.0 | 0.00 | 0.00 | 0.00 | 93 | 1012.3 |
| 20260510144017 | 55 | 0.0 | 4.0 | 0.00 | 0.00 | 0.00 | 94 | 1012.3 | |
| 20260510143017 | 54 | 0.0 | 2.0 | 0.00 | 0.00 | 0.00 | 96 | 1012.3 | |
| 20260510142038 | 53 | 0.0 | 2.0 | 0.00 | 0.00 | 0.00 | 96 | 1012.1 | |
| 20260510141017 | 52 | 248 | 1.0 | 7.0 | 0.00 | 0.00 | 0.00 | 96 | 1012.1 |
| 20260510140017 | 52 | 248 | 1.0 | 3.0 | 0.00 | 0.00 | 0.00 | 97 | 1012.2 |
| 20260510135017 | 51 | 248 | 1.0 | 4.0 | 0.00 | 0.00 | 0.00 | 97 | 1012.1 |
| 20260510134017 | 51 | 0.0 | 2.0 | 0.00 | 0.00 | 0.00 | 97 | 1012.2 | |
| 20260510133017 | 51 | 0.0 | 1.0 | 0.00 | 0.00 | 0.00 | 97 | 1012.1 | |
| 20260510132017 | 51 | 0.0 | 2.0 | 0.00 | 0.00 | 0.00 | 97 | 1012.1 | |
| 20260510131017 | 50 | 248 | 1.0 | 6.0 | 0.00 | 0.00 | 0.00 | 97 | 1012.1 |
| 20260510130016 | 50 | 0.0 | 1.0 | 0.00 | 0.00 | 0.00 | 97 | 1012.0 | |
| 20260510125018 | 50 | 248 | 1.0 | 3.0 | 0.00 | 0.00 | 0.00 | 97 | 1011.9 |
| 20260510124017 | 50 | 0.0 | 3.0 | 0.00 | 0.00 | 0.00 | 97 | 1011.8 | |
| 20260510123017 | 50 | 0.0 | 2.0 | 0.00 | 0.00 | 0.00 | 97 | 1011.7 | |
| 20260510122018 | 50 | 0.0 | 1.0 | 0.00 | 0.00 | 0.00 | 97 | 1011.8 | |
| 20260510121016 | 49 | 248 | 1.0 | 3.0 | 0.00 | 0.00 | 0.00 | 97 | 1011.9 |
| 20260510120017 | 49 | 0.0 | 2.0 | 0.00 | 0.00 | 0.00 | 97 | 1011.9 | |
| 20260510115018 | 49 | 0.0 | 2.0 | 0.00 | 0.00 | 0.00 | 97 | 1011.9 | |
| 20260510114017 | 49 | 248 | 1.0 | 4.0 | 0.00 | 0.00 | 0.00 | 97 | 1011.9 |
| 20260510113017 | 49 | 0.0 | 4.0 | 0.00 | 0.00 | 0.00 | 97 | 1011.7 | |
| 20260510112017 | 49 | 248 | 1.0 | 3.0 | 0.00 | 0.00 | 0.00 | 97 | 1011.8 |
| 20260510111018 | 49 | 0.0 | 4.0 | 0.00 | 0.00 | 0.00 | 97 | 1011.6 | |
| 20260510110037 | 49 | 225 | 1.0 | 3.0 | 0.00 | 0.00 | 0.00 | 97 | 1011.6 |
| 20260510105057 | 49 | 0.0 | 4.0 | 0.00 | 0.00 | 0.00 | 97 | 1011.6 | |
| 20260510104017 | 49 | 0.0 | 4.0 | 0.00 | 0.00 | 0.00 | 97 | 1011.6 | |
| 20260510103037 | 49 | 0.0 | 3.0 | 0.00 | 0.00 | 0.00 | 97 | 1011.2 | |
| 20260510102016 | 49 | 0.0 | 2.0 | 0.00 | 0.00 | 0.00 | 97 | 1011.1 | |
| 20260510101016 | 49 | 0.0 | 1.0 | 0.00 | 0.00 | 0.00 | 97 | 1010.9 | |
| 20260510100017 | 49 | 0.0 | 2.0 | 0.00 | 0.00 | 0.00 | 97 | 1010.3 | |
| 20260510095016 | 49 | 225 | 1.0 | 3.0 | 0.00 | 0.00 | 0.00 | 97 | 1010.4 |
| 20260510094017 | 49 | 180 | 1.0 | 5.0 | 0.00 | 0.00 | 0.00 | 97 | 1010.3 |
| 20260510093016 | 49 | 0.0 | 2.0 | 0.00 | 0.00 | 0.00 | 97 | 1010.5 | |
| 20260510092016 | 49 | 0.0 | 2.0 | 0.00 | 0.00 | 0.00 | 97 | 1010.3 | |
| 20260510091017 | 49 | 0.0 | 1.0 | 0.00 | 0.00 | 0.00 | 97 | 1010.3 | |
| 20260510090037 | 49 | 0.0 | 2.0 | 0.00 | 0.00 | 0.00 | 97 | 1010.7 | |
| 20260510085017 | 49 | 0.0 | 1.0 | 0.00 | 0.00 | 0.00 | 97 | 1010.8 | |
| 20260510084016 | 49 | 0.0 | 1.0 | 0.00 | 0.00 | 0.00 | 97 | 1010.8 | |
| 20260510083017 | 49 | 248 | 1.0 | 3.0 | 0.00 | 0.00 | 0.00 | 97 | 1010.9 |
| 20260510082037 | 49 | 0.0 | 2.0 | 0.00 | 0.00 | 0.00 | 97 | 1010.8 | |
| 20260510081057 | 49 | 0.0 | 2.0 | 0.00 | 0.00 | 0.00 | 97 | 1010.9 | |
| 20260510080016 | 49 | 0.0 | 2.0 | 0.00 | 0.00 | 0.00 | 97 | 1010.7 | |
| 20260510075057 | 49 | 0.0 | 1.0 | 0.00 | 0.00 | 0.00 | 97 | 1010.8 | |
| 20260510074016 | 49 | 0.0 | 2.0 | 0.00 | 0.00 | 0.00 | 97 | 1010.6 | |
| 20260510073017 | 49 | 225 | 1.0 | 5.0 | 0.00 | 0.00 | 0.00 | 97 | 1010.5 |
| 20260510072017 | 49 | 0.0 | 1.0 | 0.00 | 0.00 | 0.00 | 97 | 1010.4 | |
| 20260510071017 | 49 | 248 | 1.0 | 3.0 | 0.00 | 0.00 | 0.00 | 97 | 1010.5 |
| 20260510070016 | 49 | 0.0 | 1.0 | 0.00 | 0.00 | 0.00 | 97 | 1010.3 | |
| 20260510065017 | 49 | 0.0 | 1.0 | 0.00 | 0.00 | 0.00 | 96 | 1010.4 | |
| 20260510064016 | 49 | 0.0 | 1.0 | 0.00 | 0.00 | 0.00 | 97 | 1010.4 | |
| 20260510063018 | 49 | 0.0 | 1.0 | 0.00 | 0.00 | 0.00 | 97 | 1010.3 | |
| 20260510062017 | 49 | 0.0 | 3.0 | 0.00 | 0.00 | 0.00 | 96 | 1010.3 | |
| 20260510061037 | 49 | 0.0 | 2.0 | 0.00 | 0.00 | 0.00 | 96 | 1010.3 | |
| 20260510060016 | 49 | 0.0 | 1.0 | 0.00 | 0.00 | 0.00 | 96 | 1010.2 | |
| 20260510055018 | 49 | 0.0 | 1.0 | 0.00 | 0.00 | 0.00 | 96 | 1010.2 | |
| 20260510054017 | 49 | 0.0 | 1.0 | 0.00 | 0.00 | 0.00 | 96 | 1010.5 | |
| 20260510053037 | 49 | 0.0 | 0.0 | 0.00 | 0.00 | 0.00 | 96 | 1010.2 | |
| 20260510052037 | 49 | 0.0 | 3.0 | 0.00 | 0.00 | 0.00 | 96 | 1010.2 | |
| 20260510051016 | 49 | 0.0 | 1.0 | 0.00 | 0.00 | 0.00 | 96 | 1010.4 | |
| 20260510050017 | 50 | 0.0 | 2.0 | 0.00 | 0.00 | 0.00 | 96 | 1010.3 | |
| 20260510045017 | 50 | 0.0 | 4.0 | 0.00 | 0.00 | 0.00 | 96 | 1010.2 | |
| 20260510044037 | 50 | 0.0 | 1.0 | 0.00 | 0.00 | 0.00 | 96 | 1010.4 | |
| 20260510043017 | 50 | 0.0 | 2.0 | 0.00 | 0.00 | 0.00 | 96 | 1010.6 | |
| 20260510042017 | 50 | 0.0 | 1.0 | 0.00 | 0.00 | 0.00 | 96 | 1010.6 | |
| 20260510041016 | 50 | 0.0 | 0.0 | 0.00 | 0.00 | 0.00 | 96 | 1010.6 | |
| 20260510040018 | 50 | 0.0 | 4.0 | 0.00 | 0.00 | 0.00 | 96 | 1010.6 | |
| 20260510035017 | 50 | 0.0 | 3.0 | 0.00 | 0.00 | 0.00 | 96 | 1010.6 | |
| 20260510034038 | 50 | 0.0 | 1.0 | 0.00 | 0.00 | 0.00 | 96 | 1010.5 | |
| 20260510033037 | 50 | 0.0 | 1.0 | 0.00 | 0.00 | 0.00 | 96 | 1010.5 | |
| 20260510032017 | 50 | 0.0 | 0.0 | 0.00 | 0.00 | 0.00 | 96 | 1010.3 | |
| 20260510031018 | 50 | 0.0 | 2.0 | 0.00 | 0.00 | 0.00 | 96 | 1010.3 | |
| 20260510030017 | 50 | 0.0 | 1.0 | 0.00 | 0.00 | 0.00 | 96 | 1010.5 | |
| 20260510025017 | 50 | 0.0 | 2.0 | 0.00 | 0.00 | 0.00 | 96 | 1010.2 | |
| 20260510024018 | 50 | 0.0 | 8.0 | 0.00 | 0.00 | 0.00 | 96 | 1010.3 | |
| 20260510023017 | 50 | 0.0 | 2.0 | 0.00 | 0.00 | 0.00 | 96 | 1010.4 | |
| 20260510022037 | 50 | 113 | 1.0 | 4.0 | 0.00 | 0.00 | 0.00 | 96 | 1010.6 |
| 20260510021018 | 50 | 0.0 | 2.0 | 0.00 | 0.00 | 0.00 | 96 | 1010.8 | |
| 20260510020017 | 50 | 0.0 | 0.0 | 0.00 | 0.00 | 0.00 | 96 | 1011.0 | |
| 20260510015017 | 50 | 0.0 | 2.0 | 0.00 | 0.00 | 0.00 | 96 | 1010.9 | |
| 20260510014018 | 50 | 0.0 | 2.0 | 0.00 | 0.00 | 0.00 | 96 | 1011.0 | |
| 20260510013037 | 50 | 0.0 | 3.0 | 0.00 | 0.00 | 0.00 | 96 | 1010.9 | |
| 20260510012017 | 50 | 0.0 | 1.0 | 0.00 | 0.00 | 0.00 | 96 | 1010.7 | |
| 20260510011018 | 50 | 0.0 | 1.0 | 0.00 | 0.00 | 0.00 | 96 | 1010.5 | |
| 20260510010017 | 50 | 0.0 | 2.0 | 0.00 | 0.00 | 0.00 | 96 | 1010.3 | |
| 20260510005017 | 50 | 0.0 | 1.0 | 0.00 | 0.00 | 0.00 | 96 | 1010.3 | |
| 20260510004018 | 50 | 0.0 | 1.0 | 0.00 | 0.00 | 0.00 | 96 | 1010.2 | |
| 20260510003017 | 50 | 0.0 | 0.0 | 0.00 | 0.00 | 0.00 | 96 | 1010.3 | |
| 20260510002018 | 50 | 0.0 | 1.0 | 0.00 | 0.00 | 0.00 | 96 | 1010.2 | |
| 20260510001017 | 50 | 0.0 | 3.0 | 0.00 | 0.00 | 0.00 | 96 | 1010.2 | |
| 20260510000018 | 50 | 0.0 | 0.0 | 0.00 | 0.00 | 0.00 | 96 | 1010.2 | |
| 20260509235017 | 50 | 180 | 1.0 | 4.0 | 0.00 | 0.00 | 0.00 | 96 | 1010.4 |
| 20260509234017 | 50 | 0.0 | 0.0 | 0.00 | 0.00 | 0.00 | 96 | 1010.4 | |
| 20260509233018 | 50 | 0.0 | 1.0 | 0.00 | 0.00 | 0.00 | 96 | 1010.3 | |
| 20260509232017 | 50 | 0.0 | 1.0 | 0.00 | 0.00 | 0.00 | 96 | 1010.2 | |
| 20260509231018 | 50 | 0.0 | 3.0 | 0.00 | 0.00 | 0.00 | 96 | 1010.2 |